Chicago Lansing, IL

5:27 AM CST on December 18, 2017 (GMT -0600)
Lansing Municipal

Weather History for KIGQ - March, 2013

Change the Weather History Date:

Sunday, March 10, 2013

  Actual Average (KGYY) Record (KGYY)
Temperature  
Mean Temperature 47 °F -  
Max Temperature 55 °F 47 °F 67 °F (1973)
Min Temperature 39 °F 30 °F 6 °F (2003)
Degree Days  
Heating Degree Days 18    
Moisture  
Dew Point 42 °F    
Average Humidity 84    
Maximum Humidity 97    
Minimum Humidity 65    
Precipitation  
Precipitation 0.82 in - - ()
Sea Level Pressure  
Sea Level Pressure 29.76 in    
Wind  
Wind Speed 8 mph (SSE)    
Max Wind Speed 26 mph    
Max Gust Speed 36 mph    
Visibility 8 miles    
Events Rain , Thunderstorm    
Averages and records for this station are not official NWS values.
T = Trace of Precipitation, MM = Missing Value Source: NWS Daily Summary

Daily Weather History Graph

Daily Weather History Graph

Search for Another Location

Airport or City:

Trip Planner

Search our weather history database for the weather conditions in past years. The results will help you decide how hot, cold, wet, or windy it might be!

Date:

Astronomy

Mar. 10, 2013 Rise Set
Actual Time 7:09 AM CDT 6:51 PM CDT
Civil Twilight 6:42 AM CDT 7:19 PM CDT
Nautical Twilight 6:10 AM CDT 7:51 PM CDT
Astronomical Twilight 5:37 AM CDT 8:23 PM CDT
Moon 6:10 AM CDT (3/10) 5:58 PM CDT (3/10)
Length of Visible Light 12h 36m
Length of Day
11h 41m
Waning Crescent, 2% of the Moon is Illuminated
Mar 10
Waning Crescent
Mar 11
New
Mar 19
First Quarter
Mar 27
Full
Apr 2
Last Quarter

Hourly Weather History & Observations

Time (CDT) Temp. Windchill Dew Point Humidity Pressure Visibility Wind Dir Wind Speed Gust Speed Precip Events Conditions
12:15 AM 42.3 °F 39.4 °F 32.4 °F 68% 29.86 in 10.0 mi SE 4.6 mph - N/A   Overcast
12:35 AM 42.8 °F 38.6 °F 32.5 °F 67% 29.85 in 10.0 mi SSE 6.9 mph - N/A   Overcast
12:55 AM 43.7 °F 40.3 °F 32.5 °F 65% 29.85 in 10.0 mi SSE 5.8 mph - N/A   Overcast
1:15 AM 42.6 °F 38.4 °F 32.5 °F 68% 29.87 in 10.0 mi SSW 6.9 mph - N/A Rain Light Rain
1:35 AM 42.1 °F 36.1 °F 34.3 °F 74% 29.87 in 7.0 mi South 10.4 mph 19.6 mph 0.01 in Rain Rain
1:55 AM 39.2 °F 35.0 °F 35.6 °F 87% 29.88 in 10.0 mi South 5.8 mph - N/A Rain Light Rain
3:15 AM 40.8 °F 36.2 °F 37.2 °F 87% 29.88 in 5.0 mi WSW 6.9 mph - 0.05 in Rain Heavy Rain
3:35 AM 40.1 °F 38.0 °F 37.8 °F 91% 29.88 in 4.0 mi WSW 3.5 mph - 0.11 in Rain Light Rain
3:55 AM 39.2 °F 35.0 °F 37.6 °F 94% 29.86 in 3.0 mi South 5.8 mph - 0.18 in Rain , Thunderstorm Thunderstorms and Rain
4:15 AM 39.7 °F 36.5 °F 38.5 °F 95% 29.86 in 1.5 mi SSE 4.6 mph - 0.13 in Rain Light Rain
4:35 AM 39.6 °F 37.4 °F 38.5 °F 96% 29.84 in 3.0 mi SE 3.5 mph - 0.19 in Rain Light Rain
4:55 AM 39.2 °F 35.9 °F 38.3 °F 97% 29.84 in 5.0 mi SE 4.6 mph - 0.19 in Rain Light Rain
5:15 AM 39.7 °F 34.9 °F 38.8 °F 97% 29.84 in 4.0 mi SE 6.9 mph - 0.04 in Rain Rain
5:35 AM 40.3 °F - 39.2 °F 96% 29.86 in 5.0 mi Calm Calm - 0.06 in Rain Rain
5:55 AM 40.1 °F - 39.2 °F 97% 29.86 in 4.0 mi Calm Calm - 0.08 in Rain Light Rain
6:15 AM 39.0 °F 35.7 °F 38.1 °F 97% 29.86 in 2.5 mi SE 4.6 mph - 0.04 in Rain Rain
6:35 AM 39.4 °F 37.2 °F 38.5 °F 97% 29.85 in 2.5 mi SE 3.5 mph - 0.06 in Rain Rain
6:55 AM 40.1 °F 35.3 °F 39.2 °F 97% 29.85 in 5.0 mi SE 6.9 mph - 0.11 in Rain Rain
7:15 AM 40.8 °F 36.2 °F 38.8 °F 93% 29.84 in 10.0 mi SE 6.9 mph - N/A Rain Light Rain
7:35 AM 41.0 °F 37.1 °F 38.3 °F 90% 29.82 in 10.0 mi SE 5.8 mph - N/A   Overcast
7:55 AM 41.0 °F 36.4 °F 38.3 °F 90% 29.82 in 10.0 mi SSE 6.9 mph - N/A Rain Light Rain
8:15 AM 41.4 °F 35.7 °F 38.5 °F 89% 29.81 in 7.0 mi SE 9.2 mph - 0.01 in Rain Rain
8:35 AM 42.3 °F 35.5 °F 38.7 °F 87% 29.78 in 10.0 mi SE 12.7 mph 18.4 mph 0.03 in Rain Light Rain
8:55 AM 43.7 °F 36.3 °F 38.5 °F 82% 29.79 in 10.0 mi SSE 16.1 mph 19.6 mph 0.03 in Rain Light Rain
9:15 AM 43.9 °F 37.2 °F 38.5 °F 81% 29.81 in 10.0 mi South 13.8 mph - N/A Rain Rain
9:35 AM 43.7 °F 37.7 °F 38.7 °F 82% 29.81 in 10.0 mi South 11.5 mph - 0.01 in Rain Light Rain
9:55 AM 44.6 °F 36.9 °F 39.6 °F 82% 29.81 in 7.0 mi South 18.4 mph 24.2 mph 0.02 in Rain Rain
10:15 AM 44.8 °F 37.1 °F 41.2 °F 87% 29.82 in 3.0 mi South 18.4 mph - 0.03 in Rain Rain
10:35 AM 44.6 °F 38.1 °F 40.3 °F 85% 29.82 in 7.0 mi South 13.8 mph - 0.04 in Rain Light Rain
10:55 AM 45.1 °F 39.5 °F 41.0 °F 85% 29.81 in 7.0 mi South 11.5 mph - 0.05 in Rain Light Rain
11:15 AM 45.1 °F 41.4 °F 41.4 °F 87% 29.81 in 7.0 mi SSE 6.9 mph - 0.01 in Rain Light Rain
11:35 AM 46.8 °F - 41.5 °F 82% 29.80 in 10.0 mi South 8.1 mph - 0.01 in Rain Light Rain
11:55 AM 46.4 °F 42.9 °F 41.9 °F 84% 29.79 in 10.0 mi South 6.9 mph - 0.01 in   Overcast
12:15 PM 48.6 °F - 42.1 °F 78% 29.78 in 10.0 mi South 9.2 mph - N/A   Overcast
12:35 PM 48.4 °F - 41.7 °F 78% 29.80 in 10.0 mi South 11.5 mph 16.1 mph N/A   Overcast
12:55 PM 48.2 °F - 41.0 °F 76% 29.80 in 10.0 mi South 10.4 mph - N/A   Overcast
1:15 PM 48.2 °F - 41.9 °F 79% 29.80 in 10.0 mi South 11.5 mph - N/A   Overcast
1:35 PM 49.5 °F - 42.8 °F 78% 29.77 in 10.0 mi SSE 8.1 mph - N/A   Overcast
1:55 PM 49.8 °F - 43.7 °F 79% 29.75 in 10.0 mi SSE 5.8 mph - N/A   Overcast
2:15 PM 52.0 °F - 44.8 °F 76% 29.74 in 10.0 mi SE 4.6 mph - N/A   Overcast
2:35 PM 52.0 °F - 44.8 °F 76% 29.72 in 10.0 mi SE 6.9 mph - N/A   Overcast
2:55 PM 51.8 °F - 45.1 °F 78% 29.70 in 10.0 mi ESE 6.9 mph - N/A   Overcast
3:15 PM 52.3 °F - 45.9 °F 79% 29.71 in 10.0 mi SE 6.9 mph - N/A   Overcast
3:35 PM 53.8 °F - 46.8 °F 77% 29.71 in 10.0 mi SE 8.1 mph - N/A Rain Light Rain
3:55 PM 53.6 °F - 47.5 °F 80% 29.72 in 7.0 mi SSE 4.6 mph - N/A Rain Rain
4:15 PM 52.2 °F - 48.2 °F 86% 29.71 in 4.0 mi SSE 4.6 mph - 0.05 in Rain Heavy Rain
4:35 PM 52.7 °F - 48.4 °F 85% 29.69 in 7.0 mi SE 3.5 mph - 0.07 in Rain Light Rain
4:55 PM 51.3 °F - 47.5 °F 87% 29.68 in 7.0 mi ESE 4.6 mph - 0.08 in Rain Light Rain
5:15 PM 50.7 °F - 47.7 °F 89% 29.68 in 7.0 mi ESE 5.8 mph - N/A Rain Light Rain
5:35 PM 52.3 °F - 46.6 °F 81% 29.68 in 10.0 mi SSE 6.9 mph - N/A Rain Rain
5:55 PM 53.1 °F - 45.5 °F 75% 29.68 in 10.0 mi SSE 9.2 mph - 0.01 in Rain Rain
6:15 PM 52.7 °F - 45.9 °F 78% 29.68 in 10.0 mi SSE 9.2 mph - 0.02 in Rain Rain
6:35 PM 53.4 °F - 46.0 °F 76% 29.65 in 7.0 mi SSE 17.3 mph - 0.03 in Rain Rain
6:55 PM 53.6 °F - 45.5 °F 74% 29.61 in 10.0 mi SSE 19.6 mph 28.8 mph 0.04 in Rain Light Rain
7:15 PM 54.5 °F - 45.0 °F 70% 29.61 in 10.0 mi SSE 21.9 mph 32.2 mph N/A   Scattered Clouds
7:35 PM 55.0 °F - 44.6 °F 68% 29.63 in 10.0 mi SSE 20.7 mph 26.5 mph N/A   Mostly Cloudy
7:55 PM 55.4 °F - 44.1 °F 66% 29.63 in 10.0 mi South 25.3 mph 35.7 mph N/A   Overcast
8:15 PM 54.7 °F - 44.4 °F 68% 29.64 in 10.0 mi South 23.0 mph 32.2 mph N/A   Overcast
8:35 PM 53.6 °F - 45.1 °F 73% 29.65 in 7.0 mi South 24.2 mph 34.5 mph N/A Rain Rain
8:55 PM 51.8 °F - 46.4 °F 82% 29.66 in 7.0 mi South 26.5 mph 33.4 mph N/A Rain Light Rain
9:15 PM 52.2 °F - 46.9 °F 82% 29.66 in 10.0 mi South 23.0 mph 31.1 mph N/A Rain Light Rain
9:35 PM 52.0 °F - 47.3 °F 84% 29.67 in 10.0 mi SSW 17.3 mph 27.6 mph N/A Rain Light Rain
9:55 PM 51.8 °F - 48.2 °F 88% 29.67 in 10.0 mi SSW 12.7 mph - N/A Rain Light Rain
10:15 PM 50.0 °F - 47.3 °F 90% 29.67 in 10.0 mi SSW 10.4 mph - N/A   Overcast
10:35 PM 49.1 °F - 46.6 °F 91% 29.66 in 10.0 mi South 9.2 mph - 0.01 in Rain Rain
10:55 PM 48.6 °F - 46.4 °F 92% 29.67 in 10.0 mi SSW 8.1 mph - 0.01 in   Overcast
11:15 PM 48.9 °F - 46.8 °F 92% 29.66 in 10.0 mi SSW 9.2 mph - N/A   Overcast
11:35 PM 48.4 °F - 46.4 °F 93% 29.66 in 10.0 mi SSW 6.9 mph - N/A   Overcast
11:55 PM 48.2 °F - 46.4 °F 93% 29.66 in 10.0 mi SSW 9.2 mph - N/A   Overcast
12:15 AM 48.2 °F - 46.4 °F 93% 29.66 in 10.0 mi SSW 9.2 mph - N/A   Overcast
12:35 AM 48.2 °F - 46.6 °F 94% 29.65 in 10.0 mi SW 8.1 mph - N/A   Overcast
12:55 AM 48.0 °F - 46.4 °F 94% 29.65 in 7.0 mi SSW 11.5 mph - N/A   Overcast